Location: Buckenweiler
(49.0667°N, 10.2500°E)
Time: 22:16:13
(UTC+00:00)

IRS-1D - Pass Details

Date: 18 January 2026
Orbit: 737 x 810 km, 98.8° (Epoch: 17 February)

Event Time Altitude Azimuth Distance (km) Brightness Sun altitude
Rises 05:16:12 0° 10° (N) 3,336 6.8 -17.5°
Reaches altitude 10° 05:18:37 10° 5° (N) 2,405 6.0 -17.1°
Maximum altitude 05:23:41 46° 293° (WNW) 1,084 3.8 -16.3°
Drops below altitude 10° 05:28:42 10° 222° (SW) 2,389 5.8 -15.5°
Sets 05:31:06 0° 216° (SW) 3,312 6.6 -15.1°
